RLTS3 YMES-YMES

Flight info

Callsign RLTS3
Flight time 0h 40m
Altitude 6000
Route ESL DCT WSL DCT
Aircraft PC21/L-SDFGTUVY/C

Departure

Time 2026-05-04 11:34
Airport RAAF Base East Sale (YMES)

Arrival

Time 2026-05-04 12:14
Airport RAAF Base East Sale (YMES)
Time Latitude Longitude Altitude Speed Heading
2026-05-04 11:31 -38.09905 147.13631 26 ft 0 kts 188°
2026-05-04 11:33 -38.09820 147.13470 26 ft 19 kts 11°
2026-05-04 11:33 -38.09656 147.13532 24 ft 16 kts 63°
2026-05-04 11:33 -38.09691 147.13904 26 ft 87 kts 101°
2026-05-04 11:34 -38.09821 147.14951 143 ft 154 kts 100°
2026-05-04 11:34 -38.10665 147.15077 492 ft 189 kts 246°
2026-05-04 11:34 -38.10970 147.13188 580 ft 248 kts 259°
2026-05-04 11:34 -38.11314 147.10888 704 ft 281 kts 259°
2026-05-04 11:35 -38.11696 147.08408 843 ft 296 kts 259°
2026-05-04 11:35 -38.11890 147.05774 1023 ft 306 kts 274°
2026-05-04 11:35 -38.11365 147.03122 1112 ft 315 kts 288°
2026-05-04 11:35 -38.10675 147.00495 1211 ft 310 kts 284°
2026-05-04 11:36 -38.10330 146.97819 848 ft 306 kts 277°
2026-05-04 11:36 -38.10094 146.95102 312 ft 303 kts 274°
2026-05-04 11:36 -38.09935 146.92582 736 ft 270 kts 279°
2026-05-04 11:36 -38.08735 146.91841 1310 ft 263 kts 47°
2026-05-04 11:37 -38.08396 146.94234 877 ft 306 kts 96°
2026-05-04 11:37 -38.08697 146.96978 639 ft 326 kts 102°
2026-05-04 11:37 -38.09689 146.99497 810 ft 321 kts 136°
2026-05-04 11:37 -38.11717 147.00451 870 ft 311 kts 181°
2026-05-04 11:38 -38.13824 147.00052 976 ft 297 kts 191°
2026-05-04 11:38 -38.15563 146.99710 1251 ft 214 kts 189°
2026-05-04 11:38 -38.16871 146.98762 1517 ft 214 kts 243°
2026-05-04 11:38 -38.16687 146.97026 1298 ft 223 kts 313°
2026-05-04 11:39 -38.15191 146.96288 844 ft 244 kts 355°
2026-05-04 11:39 -38.13504 146.96353 612 ft 247 kts
2026-05-04 11:40 -38.09021 146.97278 469 ft 248 kts 270°
2026-05-04 11:41 -38.08764 146.95119 587 ft 233 kts 279°
2026-05-04 11:41 -38.08427 146.93269 1379 ft 197 kts 301°
2026-05-04 11:41 -38.07292 146.93351 1347 ft 236 kts 70°
2026-05-04 11:41 -38.08007 146.95284 541 ft 272 kts 139°
2026-05-04 11:42 -38.09049 146.97117 514 ft 253 kts 98°
2026-05-04 11:42 -38.08675 146.99122 1052 ft 222 kts 53°
2026-05-04 11:42 -38.07644 147.00541 1347 ft 220 kts 60°
2026-05-04 11:42 -38.07822 147.02320 1614 ft 229 kts 144°
2026-05-04 11:43 -38.09178 147.01821 897 ft 245 kts 246°
2026-05-04 11:43 -38.09213 146.99666 393 ft 255 kts 278°
2026-05-04 11:43 -38.08956 146.97470 344 ft 249 kts 279°
2026-05-04 11:43 -38.09724 146.96258 591 ft 227 kts 186°
2026-05-04 11:44 -38.11337 146.96017 698 ft 237 kts 193°
2026-05-04 11:44 -38.12801 146.95035 842 ft 243 kts 228°
2026-05-04 11:44 -38.13100 146.93028 1056 ft 251 kts 292°
2026-05-04 11:44 -38.11780 146.91616 1126 ft 265 kts 346°
2026-05-04 11:45 -38.09896 146.91684 1076 ft 280 kts 10°
2026-05-04 11:45 -38.07993 146.92176 1033 ft 277 kts 12°
2026-05-04 11:45 -38.06115 146.92711 956 ft 280 kts 13°
2026-05-04 11:45 -38.04242 146.93257 1108 ft 266 kts 18°
2026-05-04 11:46 -38.02964 146.94639 2115 ft 244 kts 71°
2026-05-04 11:46 -38.03380 146.96714 1784 ft 273 kts 133°
2026-05-04 11:46 -38.05154 146.97729 1142 ft 296 kts 177°
2026-05-04 11:46 -38.07239 146.97436 537 ft 307 kts 190°
2026-05-04 11:47 -38.09010 146.96513 604 ft 280 kts 273°
2026-05-04 11:47 -38.08737 146.94368 1925 ft 62 kts 261°
2026-05-04 11:47 -38.08884 146.95233 1445 ft 167 kts 100°
2026-05-04 11:47 -38.09205 146.97650 375 ft 287 kts 79°
2026-05-04 11:48 -38.08035 146.97351 337 ft 273 kts 265°
2026-05-04 11:48 -38.09159 146.97246 286 ft 268 kts 86°
2026-05-04 11:48 -38.09323 146.99350 1203 ft 241 kts 138°
2026-05-04 11:48 -38.10992 146.99355 948 ft 262 kts 200°
2026-05-04 11:49 -38.12706 146.98541 1007 ft 264 kts 201°
2026-05-04 11:49 -38.14430 146.97759 1141 ft 263 kts 194°
2026-05-04 11:49 -38.16141 146.97345 1818 ft 238 kts 211°
2026-05-04 11:49 -38.16542 146.95514 1878 ft 253 kts 309°
2026-05-04 11:50 -38.14839 146.95217 1498 ft 280 kts 12°
2026-05-04 11:50 -38.12851 146.95674 892 ft 299 kts
2026-05-04 11:50 -38.10774 146.96114 558 ft 302 kts
2026-05-04 11:50 -38.08711 146.96570 392 ft 299 kts
2026-05-04 11:51 -38.07533 146.96638 3363 ft 132 kts 292°
2026-05-04 11:51 -38.07360 146.97442 411 ft 294 kts 105°
2026-05-04 11:51 -38.08481 146.99520 500 ft 286 kts 137°
2026-05-04 11:51 -38.10240 147.00235 1097 ft 276 kts 191°
2026-05-04 11:52 -38.12061 146.99216 1155 ft 295 kts 207°
2026-05-04 11:52 -38.13726 146.97863 1141 ft 292 kts 222°
2026-05-04 11:52 -38.14320 146.95791 1284 ft 236 kts 284°
2026-05-04 11:52 -38.13152 146.94503 1276 ft 228 kts 340°
2026-05-04 11:53 -38.11665 146.94119 1363 ft 215 kts 354°
2026-05-04 11:53 -38.10672 146.94033 1482 ft 216 kts 356°
2026-05-04 11:53 -38.08658 146.93846 1656 ft 218 kts 355°
2026-05-04 11:53 -38.07119 146.93696 1557 ft 227 kts 356°
2026-05-04 11:55 -38.13789 146.94996 1422 ft 244 kts 240°
2026-05-04 11:55 -38.14574 146.94152 1361 ft 243 kts 189°
2026-05-04 11:56 -38.15919 146.95339 1186 ft 271 kts 97°
2026-05-04 11:56 -38.14895 146.96974 876 ft 256 kts
2026-05-04 11:56 -38.13198 146.96456 822 ft 250 kts 342°
2026-05-04 11:56 -38.11482 146.96421 624 ft 255 kts
2026-05-04 11:57 -38.09152 146.96845 333 ft 256 kts
2026-05-04 11:57 -38.07545 146.97428 1070 ft 224 kts 46°
2026-05-04 11:57 -38.07478 146.98647 1328 ft 242 kts 129°
2026-05-04 11:57 -38.08900 146.98365 777 ft 255 kts 245°
2026-05-04 11:58 -38.08885 146.96118 288 ft 262 kts 279°
2026-05-04 11:58 -38.08603 146.93978 1029 ft 216 kts 281°
2026-05-04 11:58 -38.07673 146.93156 1864 ft 213 kts 32°
2026-05-04 11:58 -38.07845 146.95088 680 ft 293 kts 135°
2026-05-04 11:59 -38.09029 146.97043 532 ft 276 kts 101°
2026-05-04 11:59 -38.08381 146.99080 630 ft 256 kts 35°
2026-05-04 11:59 -38.07249 147.00352 1756 ft 217 kts 83°
2026-05-04 11:59 -38.08355 147.01352 1388 ft 247 kts 202°
2026-05-04 12:00 -38.09093 146.99488 500 ft 263 kts 274°
2026-05-04 12:00 -38.08870 146.97191 428 ft 255 kts 271°
2026-05-04 12:00 -38.10287 146.96572 692 ft 236 kts 190°
2026-05-04 12:00 -38.11092 146.95120 1042 ft 241 kts 292°
2026-05-04 12:01 -38.09719 146.93883 955 ft 262 kts 345°
2026-05-04 12:01 -38.07855 146.93803 847 ft 278 kts
2026-05-04 12:02 -38.08345 146.97668 518 ft 268 kts 330°
2026-05-04 12:03 -38.08939 146.96637 376 ft 261 kts 127°
2026-05-04 12:03 -38.09405 146.98744 1020 ft 240 kts 137°
2026-05-04 12:03 -38.11015 146.98852 1147 ft 254 kts 197°
2026-05-04 12:03 -38.12759 146.98139 1077 ft 272 kts 199°
2026-05-04 12:04 -38.14261 146.97049 2102 ft 238 kts 244°
2026-05-04 12:04 -38.13414 146.95609 891 ft 292 kts
2026-05-04 12:04 -38.11376 146.96118 472 ft 302 kts 12°
2026-05-04 12:04 -38.09340 146.96641 402 ft 295 kts 10°
2026-05-04 12:05 -38.07576 146.97039 1915 ft 91 kts 356°
2026-05-04 12:05 -38.07312 146.96933 901 ft 239 kts 95°
2026-05-04 12:05 -38.08122 146.99092 735 ft 273 kts 140°
2026-05-04 12:05 -38.09878 146.99294 1133 ft 267 kts 194°
2026-05-04 12:06 -38.11196 146.97685 934 ft 265 kts 218°
2026-05-04 12:06 -38.12170 146.96001 981 ft 246 kts 258°
2026-05-04 12:06 -38.11292 146.94175 800 ft 285 kts 329°
2026-05-04 12:06 -38.09821 146.93602 827 ft 209 kts 353°
2026-05-04 12:07 -38.08334 146.93490 938 ft 210 kts 356°
2026-05-04 12:07 -38.06822 146.93421 1072 ft 221 kts 358°
2026-05-04 12:07 -38.05388 146.93954 1285 ft 230 kts 50°
2026-05-04 12:07 -38.05393 146.96032 846 ft 273 kts 128°
2026-05-04 12:08 -38.07045 146.97052 539 ft 276 kts 180°
2026-05-04 12:08 -38.08879 146.96828 729 ft 236 kts 168°
2026-05-04 12:08 -38.10024 146.97776 2156 ft 207 kts 171°
2026-05-04 12:08 -38.11298 146.96537 1110 ft 273 kts 197°
2026-05-04 12:09 -38.13063 146.97638 806 ft 301 kts 147°
2026-05-04 12:09 -38.14994 146.98143 1422 ft 292 kts 200°
2026-05-04 12:09 -38.15829 146.96274 1205 ft 239 kts 289°
2026-05-04 12:09 -38.14527 146.95236 1037 ft 241 kts
2026-05-04 12:10 -38.12938 146.95948 1093 ft 240 kts 24°
2026-05-04 12:10 -38.11505 146.96884 1327 ft 229 kts 31°
2026-05-04 12:10 -38.10104 146.97983 1359 ft 235 kts 32°
2026-05-04 12:10 -38.08734 146.99156 1402 ft 241 kts 34°
2026-05-04 12:11 -38.07439 147.00478 1481 ft 241 kts 46°
2026-05-04 12:11 -38.06583 147.02350 1414 ft 254 kts 75°
2026-05-04 12:11 -38.06722 147.04615 1119 ft 276 kts 119°
2026-05-04 12:11 -38.07966 147.06426 843 ft 276 kts 136°
2026-05-04 12:12 -38.09024 147.08372 667 ft 269 kts 108°
2026-05-04 12:12 -38.09303 147.10711 402 ft 269 kts 96°
2026-05-04 12:12 -38.09580 147.13046 176 ft 267 kts 99°
2026-05-04 12:12 -38.09791 147.15301 490 ft 226 kts 49°
2026-05-04 12:13 -38.09116 147.14491 636 ft 161 kts 275°
2026-05-04 12:14 -38.09779 147.14573 21 ft 33 kts 99°
2026-05-04 12:15 -38.09803 147.14713 19 ft 8 kts 134°
2026-05-04 12:15 -38.09874 147.14680 18 ft 19 kts 235°
2026-05-04 12:15 -38.09910 147.14540 23 ft 18 kts 277°
2026-05-04 12:15 -38.09888 147.14353 23 ft 19 kts 278°
2026-05-04 12:16 -38.09872 147.14228 24 ft 14 kts 279°
2026-05-04 12:16 -38.09854 147.14094 28 ft 14 kts 279°
2026-05-04 12:16 -38.09871 147.14039 29 ft 10 kts 197°
2026-05-04 12:16 -38.09923 147.14000 28 ft 9 kts 275°
2026-05-04 12:17 -38.09907 147.13877 28 ft 14 kts 279°
2026-05-04 12:17 -38.09891 147.13746 26 ft 16 kts 279°
2026-05-04 12:17 -38.09879 147.13649 26 ft 5 kts 272°
2026-05-04 12:17 -38.09892 147.13634 27 ft 5 kts 188°
2026-05-04 12:18 -38.09906 147.13631 28 ft 0 kts 191°